Tracking 17264 objects as of 1-September-2015
HD Live streaming from Space Station

IRIDIUM 33 DEB

Track IRIDIUM 33 DEB now!
10-day predictions
IRIDIUM 33 DEB is classified as:


NORAD ID: 33869
Int'l Code: 1997-051AN
Perigee: 721.2 km
Apogee: 848.5 km
Inclination: 86.4 °
Period: 100.4 minutes
Semi major axis: 7155 km
RCS: 0.08 m2 (small)
Launch date: September 14, 1997
Source: United States (US)

Note: This is SATELLITE DEBRIS
Your satellite tracking list
Your tracking list is empty





NASA's NSSDC Master Catalog

Two Line Element Set (TLE):
1 33869U 97051AN  15243.92081029 +.00004435 +00000-0 +15075-2 0  9993
2 33869 086.3714 218.1542 0088919 000.9473 359.1874 14.34206661339488

Source of the keplerian elements: AFSPC

N2YO: 337